EW5380 Weather Reports


Display with metric or nautical units.
time (UTC)temp
F
wind
direction
speed
MPH
gust
MPH
rain 1hr
in
rain 24hr
in
rain mn
in
humidity
%
barometer
mb
20180618132614 74 270 0.0 0.0 0.00 0.67 0.00 80 1023.3
20180618131108 72 269 0.0 0.0 0.00 0.67 0.00 84 1023.3
20180618125608 70 270 0.0 0.0 0.00 0.67 0.00 88 1023.2
20180618124108 69 270 0.0 0.0 0.00 0.67 0.00 92 1023.2
20180618122557 67 270 0.0 0.0 0.00 0.67 0.00 92 1023.2
20180618121058 65 270 0.0 0.0 0.00 0.67 0.00 92 1023.2
20180618115546 63 270 0.0 0.0 0.00 0.67 0.00 92 1023.2
20180618114047 63 270 0.0 0.0 0.00 0.67 0.00 91 1023.1
20180618112532 63 270 0.0 0.0 0.00 0.67 0.00 91 1023.0
20180618111034 63 270 0.0 0.0 0.00 0.67 0.00 92 1023.0
20180618105523 63 270 0.0 0.0 0.00 0.67 0.00 92 1023.1
20180618104025 62 270 0.0 0.0 0.00 0.67 0.00 91 1023.0
20180618102522 62 270 0.0 0.0 0.00 0.67 0.00 91 1023.0
20180618101020 62 270 0.0 0.0 0.00 0.67 0.00 91 1022.9
20180618095504 62 270 0.0 0.0 0.00 0.67 0.00 91 1022.8
20180618094004 62 270 0.0 0.0 0.00 0.67 0.00 90 1022.7
20180618092440 63 270 0.0 0.0 0.00 0.67 0.00 91 1022.7
20180618090923 62 270 0.0 0.0 0.00 0.67 0.00 91 1022.7
20180618085422 63 270 0.0 0.0 0.00 0.67 0.00 91 1022.5
20180618083908 63 270 0.0 0.0 0.00 0.67 0.00 91 1022.5
20180618082409 63 270 0.0 0.0 0.00 0.67 0.00 91 1022.4
20180618080902 63 270 0.0 0.0 0.00 0.67 0.00 91 1022.3
20180618075400 64 270 0.0 0.0 0.00 0.67 0.00 91 1022.3
20180618073853 63 270 0.0 0.0 0.00 0.67 0.00 91 1022.4
20180618072352 64 270 0.0 0.0 0.00 0.67 0.00 91 1022.5
20180618070846 64 270 0.0 0.0 0.00 0.67 0.00 91 1022.4
20180618065344 64 270 0.0 0.0 0.00 0.67 0.00 90 1022.4
20180618063822 65 270 0.0 0.0 0.00 0.67 0.00 91 1022.3
20180618062321 65 270 0.0 0.0 0.00 0.67 0.00 90 1022.3
20180618060812 65 270 0.0 0.0 0.00 0.67 0.00 90 1022.3
20180618055312 65 270 0.0 0.0 0.00 0.67 0.00 90 1022.5
20180618053806 65 270 0.0 0.0 0.00 0.67 0.00 90 1022.7
20180618052304 66 270 0.0 0.0 0.00 0.67 0.00 90 1022.8
20180618050748 66 270 0.0 0.0 0.00 0.67 0.00 89 1022.7
20180618045248 67 270 0.0 0.0 0.00 0.67 0.00 89 1022.8
20180618043745 67 270 0.0 0.0 0.00 0.67 0.00 89 1022.8
20180618042245 67 270 0.0 0.0 0.00 0.67 0.00 89 1022.8
20180618040736 67 270 0.0 0.0 0.00 0.67 0.00 88 1022.6
20180618035237 68 270 0.0 1.0 0.00 0.67 0.67 89 1022.7
20180618033735 68 270 0.0 0.0 0.00 0.67 0.67 88 1022.9
20180618032235 68 270 0.0 0.0 0.00 0.67 0.67 87 1023.0
20180618030718 69 270 0.0 0.0 0.00 0.67 0.67 87 1022.9
20180618025215 69 270 0.0 0.0 0.00 0.67 0.67 86 1023.2
20180618023715 70 270 0.0 0.0 0.00 0.67 0.67 86 1023.0
20180618022214 70 270 0.0 0.0 0.00 0.67 0.67 84 1022.9
20180618020708 71 270 0.0 0.0 0.00 0.67 0.67 81 1023.0
20180618015208 72 270 0.0 0.0 0.00 0.67 0.67 79 1022.9
20180618013707 73 270 0.0 0.0 0.00 0.67 0.67 77 1022.7
20180618012201 73 270 0.0 0.0 0.00 0.67 0.67 71 1022.6
20180618010659 74 270 0.0 0.0 0.00 0.67 0.67 69 1022.4
20180618005158 75 270 0.0 0.0 0.00 0.67 0.67 69 1022.2
20180618003652 76 270 0.0 1.0 0.00 0.67 0.67 68 1022.2
20180618002151 76 270 0.0 0.0 0.00 0.67 0.67 70 1021.9
20180618000630 77 270 0.0 1.0 0.00 0.67 0.67 71 1021.9
20180617235128 77 270 0.0 0.0 0.00 0.67 0.67 72 1021.8
20180617233617 77 270 0.0 1.0 0.00 0.67 0.67 72 1021.6
20180617232116 78 270 0.0 1.0 0.00 0.67 0.67 71 1021.6
20180617230616 80 270 0.0 2.0 0.00 0.67 0.67 67 1021.2
20180617225112 83 270 0.0 1.0 0.00 0.67 0.67 60 1021.1
20180617223548 85 270 0.0 0.0 0.00 0.67 0.67 57 1021.0
20180617222034 86 270 0.0 0.0 0.00 0.67 0.67 55 1021.1
20180617220532 86 270 0.0 1.0 0.00 0.67 0.67 58 1021.2
20180617215022 86 270 0.0 0.0 0.00 0.67 0.67 59 1021.5
20180617213523 85 270 0.0 0.0 0.00 0.67 0.67 63 1021.6
20180617212015 84 270 0.0 2.0 0.00 0.67 0.67 58 1021.6
20180617210513 82 270 0.0 3.0 0.00 0.67 0.67 62 1021.8
20180617205013 81 270 0.0 0.0 0.00 0.67 0.67 70 1021.7
20180617203511 79 270 0.0 0.0 0.00 0.67 0.67 70 1021.9
20180617202009 77 270 0.0 0.0 0.00 0.67 0.67 75 1021.8
20180617200509 76 270 0.0 1.0 0.00 0.67 0.67 76 1021.8
20180617195002 75 270 0.0 3.0 0.00 0.67 0.67 81 1022.1
20180617193459 74 270 1.0 8.0 0.00 0.67 0.67 80 1022.3
20180617192000 72 282 0.0 3.0 0.00 0.67 0.67 84 1021.8
20180617190437 71 282 0.0 3.0 0.17 0.67 0.67 89 1021.8
20180617184938 70 265 0.0 2.0 0.65 0.67 0.67 89 1022.3
20180617183437 69 209 0.0 1.0 0.66 0.67 0.67 88 1022.5
20180617181932 69 209 0.0 8.0 0.67 0.67 0.67 83 1023.1
20180617180409 72 132 1.0 10.0 0.50 0.50 0.50 76 1023.2
20180617174911 76 173 2.0 8.0 0.02 0.02 0.02 64 1023.5
20180617173355 83 254 0.0 3.0 0.01 0.01 0.01 56 1023.0
20180617171855 86 284 0.0 2.0 0.00 0.00 0.00 60 1022.7
20180617170353 86 284 0.0 2.0 0.00 0.00 0.00 56 1022.6
20180617164855 86 284 1.0 4.0 0.00 0.00 0.00 53 1022.7
20180617163348 86 183 0.0 2.0 0.00 0.00 0.00 56 1022.8
20180617161850 85 119 0.0 2.0 0.00 0.00 0.00 55 1022.8
20180617160341 85 286 0.0 4.0 0.00 0.00 0.00 59 1022.9
20180617154842 84 288 0.0 3.0 0.00 0.00 0.00 58 1023.1
20180617153342 83 258 0.0 6.0 0.00 0.00 0.00 58 1023.2
20180617151840 82 300 1.0 4.0 0.00 0.00 0.00 61 1023.2
20180617150328 82 269 0.0 2.0 0.00 0.00 0.00 62 1023.2
20180617144830 81 266 0.0 3.0 0.00 0.00 0.00 64 1023.1
20180617143324 81 259 1.0 3.0 0.00 0.00 0.00 62 1023.0
20180617141826 80 294 0.0 3.0 0.00 0.00 0.00 65 1023.0
20180617140319 80 126 0.0 3.0 0.00 0.00 0.00 68 1023.1
20180617134820 78 112 0.0 3.0 0.00 0.00 0.00 69 1023.3